Regional Weather Roundup
Issued by NWS Raleigh/Durham, NC

Home | Current Version | Previous Version | Text Only | Print | Product List | Glossary On
Versions: 1 2 3 4 5 6 7 8 9 10 11 12 13 14 15 16 17 18 19 20 21 22 23 24 25 26 27 28 29 30 31 32 33 34 35 36 37 38 39 40 41 42 43 44 45 46 47 48 49 50
000
ASUS42 KRAH 311110
RWRRAH
NORTH CAROLINA WEATHER ROUNDUP
NATIONAL WEATHER SERVICE RALEIGH NC
700 AM EDT MON AUG 31 2015

NOTE: "FAIR" INDICATES FEW OR NO CLOUDS BELOW 12,000 FEET WITH NO
SIGNIFICANT WEATHER AND/OR OBSTRUCTIONS TO VISIBILITY.

NCZ001-053-055-056-065-067-311200-
WESTERN NORTH CAROLINA

CITY           SKY/WX    TMP DP  RH WIND       PRES   REMARKS
ASHEVILLE      PTCLDY    61  59  93 N5        30.18R
JEFFERSON      CLOUDY    59  59 100 N3        30.21R FOG
MORGANTON      FOG       63  63 100 CALM      30.18S VSB<1/4
HICKORY        MOCLDY    64  63  96 W3        30.13S FOG
RUTHERFORDTON  PTCLDY    63  63  98 CALM      30.14R
MOUNT AIRY     CLOUDY    67  65  91 CALM      30.15S
BOONE          MOCLDY    58  58  97 CALM      30.22R
$$

NCZ021-022-025-041-071-084-088-311200-
CENTRAL NORTH CAROLINA

CITY           SKY/WX    TMP DP  RH WIND       PRES   REMARKS
CHARLOTTE      MOCLDY    68  66  93 N3        30.11S
GREENSBORO     RAIN      68  66  93 E3        30.12R FOG
WINSTON-SALEM  CLOUDY    68  65  90 N3        30.13S
RALEIGH-DURHAM RAIN      68  66  93 VRB5      30.10F FOG
FORT BRAGG     LGT RAIN  69  68  94 N5        30.07R
FAYETTEVILLE   CLOUDY    72  68  87 E7        30.06S
BURLINGTON     RAIN      67  67 100 CALM      30.11S FOG
LAURINBURG     CLOUDY    69  67  93 NW5       30.09R
$$

NCZ011-015-027-028-043-044-047-080-103-311200-
NORTHEASTERN NORTH CAROLINA

CITY           SKY/WX    TMP DP  RH WIND       PRES   REMARKS
ROCKY MT-WILSO LGT RAIN  70  68  93 SE5       30.12R FOG
GREENVILLE     CLOUDY    70  70 100 CALM      30.13R
WASHINGTON     CLOUDY    70  68  91 NE3       30.12R
ELIZABETH CITY CLOUDY    72  69  90 S5        30.13R
MANTEO         CLOUDY    73  71  93 CALM      30.13R
CAPE HATTERAS  CLOUDY    74  72  93 E3        30.11F
$$

NCZ078-087-090-091-093-098-101-311200-
SOUTHEASTERN NORTH CAROLINA

CITY           SKY/WX    TMP DP  RH WIND       PRES   REMARKS
LUMBERTON      LGT RAIN  72  69  90 W8        30.07R FOG
GOLDSBORO      CLOUDY    70  69  95 E6        30.08S
KINSTON        CLOUDY    72  68  88 E5        30.11S
KENANSVILLE      N/A     70  69  94 CALM      30.09F
NEW BERN       CLOUDY    75  70  84 CALM      30.11S
CHERRY POINT   CLOUDY    74  70  87 E3        30.11S
BEAUFORT       LGT RAIN  76  72  87 E3        30.10S
JACKSONVILLE   CLOUDY    76  71  85 E5        30.08S
WILMINGTON     CLOUDY    77  73  87 E5        30.06F
$$



USA.gov is the U.S. government's official web portal to all federal, state and local government web resources and services.